Time,TemperatureF,DewpointF,PressureIn,WindDirection,WindDirectionDegrees,WindSpeedMPH,WindSpeedGustMPH,Humidity,HourlyPrecipIn,Conditions,Clouds,dailyrainin,SoftwareType,DateUTC
2013-08-18 00:01:00,68.7,63.0,30.14,NNW,328,0.0,0.0,83,0.00,,,0.00,weatherlink.com 1.10,2013-08-18 04:01:00,
2013-08-18 00:16:00,68.8,64.0,30.14,SE,131,0.0,0.0,83,0.00,,,0.00,weatherlink.com 1.10,2013-08-18 04:16:00,
2013-08-18 00:31:00,68.1,63.0,30.14,SE,129,0.0,0.0,84,0.00,,,0.00,weatherlink.com 1.10,2013-08-18 04:31:00,
2013-08-18 00:46:00,67.4,63.0,30.14,NNW,336,0.0,0.0,86,0.00,,,0.00,weatherlink.com 1.10,2013-08-18 04:46:00,
2013-08-18 01:01:00,67.2,63.0,30.14,NNW,330,0.0,0.0,86,0.00,,,0.00,weatherlink.com 1.10,2013-08-18 05:01:00,
2013-08-18 01:17:00,66.7,63.0,30.13,NNW,330,0.0,0.0,87,0.00,,,0.00,weatherlink.com 1.10,2013-08-18 05:17:00,
2013-08-18 01:32:00,66.0,63.0,30.14,NNW,330,0.0,0.0,89,0.00,,,0.00,weatherlink.com 1.10,2013-08-18 05:32:00,
2013-08-18 01:47:00,65.4,63.0,30.13,NNW,328,1.0,2.0,90,0.00,,,0.00,weatherlink.com 1.10,2013-08-18 05:47:00,
2013-08-18 02:02:00,65.0,62.0,30.13,NNW,328,0.0,0.0,90,0.00,,,0.00,weatherlink.com 1.10,2013-08-18 06:02:00,
2013-08-18 02:17:00,64.7,62.0,30.13,NW,325,0.0,0.0,91,0.00,,,0.00,weatherlink.com 1.10,2013-08-18 06:17:00,
2013-08-18 02:32:00,64.3,62.0,30.13,NNW,330,0.0,0.0,91,0.00,,,0.00,weatherlink.com 1.10,2013-08-18 06:32:00,
2013-08-18 02:47:00,64.1,62.0,30.13,NW,323,0.0,0.0,92,0.00,,,0.00,weatherlink.com 1.10,2013-08-18 06:47:00,
2013-08-18 03:02:00,63.9,62.0,30.13,NW,323,0.0,0.0,92,0.00,,,0.00,weatherlink.com 1.10,2013-08-18 07:02:00,
2013-08-18 03:17:00,64.0,62.0,30.13,NNW,346,0.0,2.0,93,0.00,,,0.00,weatherlink.com 1.10,2013-08-18 07:17:00,
2013-08-18 03:32:00,64.6,62.0,30.13,NNW,333,0.0,1.0,91,0.00,,,0.00,weatherlink.com 1.10,2013-08-18 07:32:00,
2013-08-18 03:47:00,64.2,62.0,30.13,NNW,333,0.0,1.0,92,0.00,,,0.00,weatherlink.com 1.10,2013-08-18 07:47:00,
2013-08-18 04:02:00,63.9,62.0,30.12,NW,310,0.0,1.0,93,0.00,,,0.00,weatherlink.com 1.10,2013-08-18 08:02:00,
2013-08-18 04:17:00,64.9,62.0,30.12,NNE,22,2.0,4.0,91,0.00,,,0.00,weatherlink.com 1.10,2013-08-18 08:17:00,
2013-08-18 04:32:00,65.2,63.0,30.13,NNE,23,1.0,4.0,91,0.00,,,0.00,weatherlink.com 1.10,2013-08-18 08:32:00,
2013-08-18 04:47:00,65.0,62.0,30.12,NNW,335,1.0,4.0,90,0.00,,,0.00,weatherlink.com 1.10,2013-08-18 08:47:00,
2013-08-18 05:02:00,64.9,62.0,30.12,NNW,346,0.0,3.0,91,0.00,,,0.00,weatherlink.com 1.10,2013-08-18 09:02:00,
2013-08-18 05:17:00,64.9,62.0,30.12,North,352,0.0,3.0,90,0.00,,,0.00,weatherlink.com 1.10,2013-08-18 09:17:00,
2013-08-18 05:32:00,64.6,62.0,30.13,NW,311,0.0,2.0,91,0.00,,,0.00,weatherlink.com 1.10,2013-08-18 09:32:00,
2013-08-18 05:47:00,64.3,62.0,30.13,NNW,327,0.0,4.0,91,0.00,,,0.00,weatherlink.com 1.10,2013-08-18 09:47:00,
2013-08-18 06:02:00,64.0,61.0,30.12,North,9,1.0,3.0,91,0.00,,,0.00,weatherlink.com 1.10,2013-08-18 10:02:00,
2013-08-18 06:17:00,63.9,62.0,30.13,NNW,337,2.0,2.0,92,0.00,,,0.00,weatherlink.com 1.10,2013-08-18 10:17:00,
2013-08-18 06:32:00,63.5,61.0,30.14,NNW,327,0.0,0.0,92,0.00,,,0.00,weatherlink.com 1.10,2013-08-18 10:32:00,
2013-08-18 06:47:00,62.7,61.0,30.14,NNW,327,0.0,1.0,93,0.00,,,0.00,weatherlink.com 1.10,2013-08-18 10:47:00,
2013-08-18 07:02:00,62.2,61.0,30.15,NNW,330,0.0,1.0,94,0.00,,,0.00,weatherlink.com 1.10,2013-08-18 11:02:00,
2013-08-18 07:17:00,61.8,60.0,30.15,NNW,330,0.0,0.0,94,0.00,,,0.00,weatherlink.com 1.10,2013-08-18 11:17:00,
2013-08-18 07:32:00,61.5,60.0,30.16,NNW,330,0.0,1.0,95,0.00,,,0.00,weatherlink.com 1.10,2013-08-18 11:32:00,
2013-08-18 07:47:00,61.8,61.0,30.16,NW,326,0.0,0.0,96,0.00,,,0.00,weatherlink.com 1.10,2013-08-18 11:47:00,
2013-08-18 08:02:00,64.3,63.0,30.16,NNW,327,0.0,0.0,95,0.00,,,0.00,weatherlink.com 1.10,2013-08-18 12:02:00,
2013-08-18 08:17:00,66.9,64.0,30.16,SSE,149,0.0,1.0,90,0.00,,,0.00,weatherlink.com 1.10,2013-08-18 12:17:00,
2013-08-18 08:32:00,69.0,64.0,30.17,NNE,29,0.0,3.0,84,0.00,,,0.00,weatherlink.com 1.10,2013-08-18 12:32:00,
2013-08-18 08:47:00,70.3,65.0,30.17,NNW,331,0.0,1.0,82,0.00,,,0.00,weatherlink.com 1.10,2013-08-18 12:47:00,
2013-08-18 09:02:00,71.7,64.0,30.17,ESE,116,0.0,4.0,77,0.00,,,0.00,weatherlink.com 1.10,2013-08-18 13:02:00,
2013-08-18 09:17:00,72.2,64.0,30.17,SE,132,1.0,3.0,76,0.00,,,0.00,weatherlink.com 1.10,2013-08-18 13:17:00,
2013-08-18 09:33:00,73.0,65.0,30.17,East,91,0.0,2.0,75,0.00,,,0.00,weatherlink.com 1.10,2013-08-18 13:33:00,
2013-08-18 09:48:00,74.1,65.0,30.17,SE,128,1.0,4.0,73,0.00,,,0.00,weatherlink.com 1.10,2013-08-18 13:48:00,
2013-08-18 10:03:00,74.1,65.0,30.17,NNW,343,3.0,3.0,73,0.00,,,0.00,weatherlink.com 1.10,2013-08-18 14:03:00,
2013-08-18 10:18:00,75.1,66.0,30.18,East,99,0.0,2.0,72,0.00,,,0.00,weatherlink.com 1.10,2013-08-18 14:18:00,
2013-08-18 10:33:00,75.4,65.0,30.18,East,94,1.0,3.0,71,0.00,,,0.00,weatherlink.com 1.10,2013-08-18 14:33:00,
2013-08-18 10:48:00,76.8,65.0,30.18,ESE,119,1.0,3.0,68,0.00,,,0.00,weatherlink.com 1.10,2013-08-18 14:48:00,
2013-08-18 11:03:00,77.3,65.0,30.18,East,98,2.0,4.0,67,0.00,,,0.00,weatherlink.com 1.10,2013-08-18 15:03:00,
2013-08-18 11:18:00,77.9,64.0,30.18,East,84,2.0,5.0,63,0.00,,,0.00,weatherlink.com 1.10,2013-08-18 15:18:00,
2013-08-18 11:33:00,77.6,64.0,30.17,NW,317,4.0,6.0,63,0.00,,,0.00,weatherlink.com 1.10,2013-08-18 15:33:00,
2013-08-18 11:48:00,77.6,63.0,30.17,SE,136,1.0,4.0,60,0.00,,,0.00,weatherlink.com 1.10,2013-08-18 15:48:00,
2013-08-18 12:03:00,78.4,63.0,30.16,East,94,2.0,5.0,60,0.00,,,0.00,weatherlink.com 1.10,2013-08-18 16:03:00,
2013-08-18 12:18:00,79.4,61.0,30.16,NNW,335,1.0,5.0,53,0.00,,,0.00,weatherlink.com 1.10,2013-08-18 16:18:00,
2013-08-18 12:33:00,79.7,62.0,30.16,NE,46,3.0,6.0,54,0.00,,,0.00,weatherlink.com 1.10,2013-08-18 16:33:00,
2013-08-18 12:48:00,80.2,61.0,30.15,SE,129,1.0,4.0,52,0.00,,,0.00,weatherlink.com 1.10,2013-08-18 16:48:00,
2013-08-18 13:03:00,81.5,61.0,30.15,SE,127,0.0,4.0,50,0.00,,,0.00,weatherlink.com 1.10,2013-08-18 17:03:00,
2013-08-18 13:18:00,82.2,61.0,30.15,ESE,110,1.0,7.0,49,0.00,,,0.00,weatherlink.com 1.10,2013-08-18 17:18:00,
2013-08-18 13:33:00,82.2,60.0,30.15,NW,322,1.0,5.0,47,0.00,,,0.00,weatherlink.com 1.10,2013-08-18 17:33:00,
2013-08-18 13:48:00,83.2,61.0,30.14,SSE,165,3.0,6.0,47,0.00,,,0.00,weatherlink.com 1.10,2013-08-18 17:48:00,
2013-08-18 14:03:00,82.4,61.0,30.14,ESE,110,1.0,5.0,48,0.00,,,0.00,weatherlink.com 1.10,2013-08-18 18:03:00,
2013-08-18 14:18:00,83.1,62.0,30.13,ESE,110,0.0,2.0,49,0.00,,,0.00,weatherlink.com 1.10,2013-08-18 18:18:00,
2013-08-18 14:33:00,83.9,62.0,30.13,SE,134,0.0,3.0,48,0.00,,,0.00,weatherlink.com 1.10,2013-08-18 18:33:00,
2013-08-18 14:48:00,83.0,61.0,30.12,WNW,300,1.0,5.0,47,0.00,,,0.00,weatherlink.com 1.10,2013-08-18 18:48:00,
2013-08-18 15:03:00,81.5,62.0,30.12,NNW,341,0.0,4.0,51,0.00,,,0.00,weatherlink.com 1.10,2013-08-18 19:03:00,
2013-08-18 15:18:00,82.8,63.0,30.11,SE,127,2.0,4.0,51,0.00,,,0.00,weatherlink.com 1.10,2013-08-18 19:18:00,
2013-08-18 15:33:00,84.1,63.0,30.11,NNE,20,1.0,6.0,49,0.00,,,0.00,weatherlink.com 1.10,2013-08-18 19:33:00,
2013-08-18 15:48:00,85.0,63.0,30.11,ESE,118,0.0,6.0,48,0.00,,,0.00,weatherlink.com 1.10,2013-08-18 19:48:00,
2013-08-18 16:03:00,85.1,63.0,30.11,ESE,119,5.0,5.0,48,0.00,,,0.00,weatherlink.com 1.10,2013-08-18 20:03:00,
2013-08-18 16:18:00,85.0,65.0,30.10,SSE,152,0.0,3.0,51,0.00,,,0.00,weatherlink.com 1.10,2013-08-18 20:18:00,
2013-08-18 16:34:00,85.5,63.0,30.10,SE,131,1.0,2.0,47,0.00,,,0.00,weatherlink.com 1.10,2013-08-18 20:34:00,
2013-08-18 16:48:00,86.0,64.0,30.10,SE,138,0.0,2.0,48,0.00,,,0.00,weatherlink.com 1.10,2013-08-18 20:48:00,
2013-08-18 17:03:00,85.9,66.0,30.09,West,269,0.0,2.0,52,0.00,,,0.00,weatherlink.com 1.10,2013-08-18 21:03:00,
2013-08-18 17:18:00,86.5,66.0,30.09,SE,146,1.0,3.0,50,0.00,,,0.00,weatherlink.com 1.10,2013-08-18 21:18:00,
2013-08-18 17:33:00,85.8,66.0,30.09,SE,143,0.0,3.0,52,0.00,,,0.00,weatherlink.com 1.10,2013-08-18 21:33:00,
2013-08-18 17:49:00,85.1,64.0,30.08,SSE,159,0.0,2.0,50,0.00,,,0.00,weatherlink.com 1.10,2013-08-18 21:49:00,
2013-08-18 18:04:00,83.5,65.0,30.09,SE,134,0.0,2.0,53,0.00,,,0.00,weatherlink.com 1.10,2013-08-18 22:04:00,
2013-08-18 18:19:00,81.9,65.0,30.09,WSW,245,0.0,1.0,57,0.00,,,0.00,weatherlink.com 1.10,2013-08-18 22:19:00,
2013-08-18 18:34:00,81.2,66.0,30.09,WSW,245,0.0,0.0,60,0.00,,,0.00,weatherlink.com 1.10,2013-08-18 22:34:00,
2013-08-18 18:49:00,83.2,66.0,30.09,SE,136,0.0,0.0,57,0.00,,,0.00,weatherlink.com 1.10,2013-08-18 22:49:00,
2013-08-18 19:04:00,83.0,66.0,30.08,SE,136,0.0,0.0,57,0.00,,,0.00,weatherlink.com 1.10,2013-08-18 23:04:00,
2013-08-18 19:19:00,83.4,67.0,30.08,SE,136,0.0,0.0,58,0.00,,,0.00,weatherlink.com 1.10,2013-08-18 23:19:00,
2013-08-18 19:34:00,82.0,67.0,30.08,SE,132,0.0,3.0,61,0.00,,,0.00,weatherlink.com 1.10,2013-08-18 23:34:00,
2013-08-18 19:49:00,79.7,67.0,30.08,SE,134,1.0,5.0,65,0.00,,,0.00,weatherlink.com 1.10,2013-08-18 23:49:00,
2013-08-18 20:04:00,78.0,67.0,30.08,ESE,123,0.0,5.0,68,0.00,,,0.00,weatherlink.com 1.10,2013-08-19 00:04:00,
2013-08-18 20:19:00,77.3,67.0,30.09,SE,133,0.0,2.0,71,0.00,,,0.00,weatherlink.com 1.10,2013-08-19 00:19:00,
2013-08-18 20:34:00,76.8,67.0,30.09,ESE,121,0.0,3.0,72,0.00,,,0.00,weatherlink.com 1.10,2013-08-19 00:34:00,
2013-08-18 20:49:00,76.3,67.0,30.09,ESE,122,1.0,3.0,74,0.00,,,0.00,weatherlink.com 1.10,2013-08-19 00:49:00,
2013-08-18 21:05:00,75.7,68.0,30.09,SE,129,0.0,4.0,76,0.00,,,0.00,weatherlink.com 1.10,2013-08-19 01:05:00,
2013-08-18 21:19:00,75.1,67.0,30.10,East,89,2.0,5.0,77,0.00,,,0.00,weatherlink.com 1.10,2013-08-19 01:19:00,
2013-08-18 21:34:00,74.6,68.0,30.10,SE,134,0.0,3.0,79,0.00,,,0.00,weatherlink.com 1.10,2013-08-19 01:34:00,
2013-08-18 21:49:00,74.0,68.0,30.11,SE,126,0.0,1.0,80,0.00,,,0.00,weatherlink.com 1.10,2013-08-19 01:49:00,
2013-08-18 22:04:00,73.5,67.0,30.12,SE,127,0.0,2.0,81,0.00,,,0.00,weatherlink.com 1.10,2013-08-19 02:04:00,
2013-08-18 22:19:00,73.0,67.0,30.12,SE,127,0.0,0.0,82,0.00,,,0.00,weatherlink.com 1.10,2013-08-19 02:19:00,
2013-08-18 22:34:00,72.6,67.0,30.12,SE,125,0.0,1.0,83,0.00,,,0.00,weatherlink.com 1.10,2013-08-19 02:34:00,
2013-08-18 22:49:00,72.1,67.0,30.13,SSE,155,0.0,0.0,84,0.00,,,0.00,weatherlink.com 1.10,2013-08-19 02:49:00,
2013-08-18 23:04:00,70.9,67.0,30.12,SSE,155,0.0,0.0,86,0.00,,,0.00,weatherlink.com 1.10,2013-08-19 03:04:00,
2013-08-18 23:19:00,70.1,67.0,30.12,SSE,155,0.0,0.0,88,0.00,,,0.00,weatherlink.com 1.10,2013-08-19 03:19:00,
2013-08-18 23:34:00,69.4,66.0,30.13,SSE,155,0.0,0.0,89,0.00,,,0.00,weatherlink.com 1.10,2013-08-19 03:34:00,
2013-08-18 23:49:00,69.0,66.0,30.12,WNW,301,0.0,1.0,90,0.00,,,0.00,weatherlink.com 1.10,2013-08-19 03:49:00,